Other Surface Observations
Issued by NWS

Home | Current Version | Previous Version | Text Only | Print | Product List | Glossary On
Versions: 1 2 3 4 5 6 7 8 9 10 11 12 13 14 15 16 17 18 19 20 21 22 23 24 25 26 27 28 29 30 31 32 33 34 35 36 37 38 39 40 41 42 43 44 45 46 47 48 49 50
000
SXUS52 KTAE 070710
OSOTAE
OSOTAE
North Florida/South Alabama/Southwest Georgia Weather Roundup
National Weather Service Tallahassee Florida
300 AM EDT TUE JUL 07 2015

Note: "fair" indicates few or no clouds below 12,000 feet with no
significant weather and/or obstructions to visibility.

!FLZ017-115-028-034-025-070800
...North Florida...

CITY           SKY/WX    TMP DP  RH WIND       PRES   REMARKS
TALLAHASSEE    CLEAR     75  72  90 CALM      30.11S
APALACHICOLA   CLEAR     77  72  84 CALM      30.11S
PERRY          CLEAR     73  73 100 CALM      30.12R
CROSS CITY       N/A     74  71  91 CALM      30.10F
JACKSONVILLE   MOCLDY    72  70  93 CALM      30.11R
$$

!FLZ112-006-005-002-011-070800
...Florida Panhandle...

CITY           SKY/WX    TMP DP  RH WIND       PRES   REMARKS
MARIANNA       CLEAR     75  74  96 CALM      30.11R
BONIFAY        FAIR      73  72  96 CALM      30.13R
PANAMA CITY NW FAIR      74  72  93 CALM      30.11R
TYNDALL AFB    CLEAR     74  73  97 CALM      30.11S
TYND DRONE APT FAIR      74  74  99 CALM      30.11R
DE FUNIAK SPR  FAIR      75  71  87 CALM      30.13R
EGLIN AFB      NOT AVBL
DESTIN         CLEAR     81  73  76 CALM      30.11S
HURLBURT       CLEAR     76  69  80 N1        30.10S
CRESTVIEW      CLEAR     72  71  97 CALM      30.13S
PENSACOLA      CLEAR     75  69  81 CALM      30.12R
$$

!ALZ063-066-070800
...South Alabama...

CITY           SKY/WX    TMP DP  RH WIND       PRES   REMARKS
DOTHAN         CLEAR     74  72  93 NW3       30.16R
OZARK CAIRNS   CLEAR     73  72  95 N1        30.12R
FT RUCKER HELI PTCLDY    72  70  93 CALM      30.11S
RUCKER HELI 3  FAIR      73  71  96 N1        30.13S
RUCKER HELI 2  FAIR      71  71 100 CALM      30.11R
FLORALA APT    CLEAR     74  71  91 CALM      30.14S
ANDALUSIA      CLEAR     77  72  84 CALM      30.13R
TROY           CLEAR     73  71  93 CALM      30.13S
EUFALA         FAIR      71  69  93 CALM      30.11S
MOBILE         CLEAR     74  73  97 CALM      30.14R
$$

!GAZ120>161-070800
...Southwest and South Central Georgia...

CITY           SKY/WX    TMP DP  RH WIND       PRES   REMARKS
THOMASVILLE    FAIR      72  72 100 CALM      30.13R
BAINBRIDGE     CLEAR     75  73  94 W3        30.12R
MOODY AFB      PTCLDY    74  71  90 CALM      30.11R
VALDOSTA       CLEAR     73  72  96 CALM      30.11S
MOULTRIE       CLEAR     73  72  94 CALM      30.13R
BLAKELY        CLEAR     73  73 100 CALM      30.13R
ALBANY         CLEAR     72  70  93 CALM      30.14R
TIFTON         FAIR      73  72  98 CALM      30.12R
FITZGERALD     FAIR      74  73  96 CALM      30.14R
CORDELE        FAIR      74  73  95 CALM      30.13R
AMERICUS       FAIR      72  72 100 CALM      30.14R
HOMERVILLE     FAIR      73  73 100 CALM      30.12R
$$

!GMZ750-755-770-775-070800
...Coastal and Buoy Obs...

STATION/POSITION TIME  TEMP    WIND        PRES    VSBY  WAVE
                       AIR SEA DIR/SP/G                  HT/PER
                 (UTC) (F)     (DEG/KT/KT) (MB)    (MI)  (FT/S)
KEATON BEACH     0700   75      70/  3/  3 1019.7R
CEDAR KEY        0700   83     200/  3/  4 1019.7R
C TOWER          0700   81     280/  6/  6 1019.7R
APALACHICOLA BUO 0650   83 85   CALM  /  2 1019.5S         2/10
PANAMA CITY BUOY 0650   82 84  190/  4/  6 1020.2R         2/ 6
MOBILE BUOY      0650   84 86  170/ 10/ 12 1020.1R         2/ 5
ORANGE BCH AL BU 0650   84 85  200/  8/ 10 1019.2R         1/ 5
$$



USA.gov is the U.S. government's official web portal to all federal, state and local government web resources and services.